Time,TemperatureF,DewpointF,PressureIn,WindDirection,WindDirectionDegrees,WindSpeedMPH,WindSpeedGustMPH,Humidity,HourlyPrecipIn,Conditions,Clouds,dailyrainin,SoftwareType,DateUTC
2014-08-22 00:03:00,63.0,63.0,-100.00,East,95,3.0,6.0,99,-99.99,,,-99.99,,2014-08-22 05:03:00,
2014-08-22 00:23:00,63.0,63.0,-100.00,ESE,120,1.0,6.0,99,-99.99,,,-99.99,,2014-08-22 05:23:00,
2014-08-22 01:02:00,63.0,63.0,-100.00,ESE,120,1.0,6.0,99,-99.99,,,-99.99,,2014-08-22 06:02:00,
2014-08-22 01:42:00,63.0,63.0,-100.00,East,100,3.0,6.0,99,-99.99,,,-99.99,,2014-08-22 06:42:00,
2014-08-22 02:42:00,63.0,63.0,-100.00,East,80,2.0,6.0,99,-99.99,,,-99.99,,2014-08-22 07:42:00,
2014-08-22 03:42:00,63.0,63.0,-100.00,East,95,2.0,7.0,99,-99.99,,,-99.99,,2014-08-22 08:42:00,
2014-08-22 03:53:00,63.0,63.0,-100.00,East,95,2.0,7.0,99,-99.99,,,-99.99,,2014-08-22 08:53:00,
2014-08-22 04:44:00,63.0,63.0,-100.00,East,100,2.0,6.0,99,-99.99,,,-99.99,,2014-08-22 09:44:00,
2014-08-22 04:54:00,63.0,63.0,-100.00,East,100,2.0,6.0,99,-99.99,,,-99.99,,2014-08-22 09:54:00,
2014-08-22 05:53:00,63.0,63.0,-100.00,East,95,2.0,4.0,99,-99.99,,,-99.99,,2014-08-22 10:53:00,
2014-08-22 06:03:00,63.0,63.0,-100.00,East,95,2.0,4.0,99,-99.99,,,-99.99,,2014-08-22 11:03:00,
2014-08-22 06:43:00,63.0,63.0,-100.00,ESE,110,2.0,5.0,99,-99.99,,,-99.99,,2014-08-22 11:43:00,
2014-08-22 06:53:00,63.0,63.0,-100.00,ESE,110,2.0,5.0,99,-99.99,,,-99.99,,2014-08-22 11:53:00,
2014-08-22 07:02:00,63.0,63.0,-100.00,ESE,110,2.0,5.0,99,-99.99,,,-99.99,,2014-08-22 12:02:00,
2014-08-22 07:32:00,63.0,63.0,-100.00,East,100,3.0,6.0,99,-99.99,,,-99.99,,2014-08-22 12:32:00,
2014-08-22 07:42:00,63.0,63.0,-100.00,East,100,3.0,6.0,99,-99.99,,,-99.99,,2014-08-22 12:42:00,
2014-08-22 07:53:00,63.0,63.0,-100.00,East,100,3.0,6.0,99,-99.99,,,-99.99,,2014-08-22 12:53:00,
2014-08-22 08:42:00,64.0,64.0,-100.00,East,90,5.0,9.0,99,-99.99,,,-99.99,,2014-08-22 13:42:00,
2014-08-22 08:53:00,64.0,64.0,-100.00,East,90,5.0,9.0,99,-99.99,,,-99.99,,2014-08-22 13:53:00,
2014-08-22 09:02:00,64.0,64.0,-100.00,East,90,5.0,9.0,99,-99.99,,,-99.99,,2014-08-22 14:02:00,
2014-08-22 09:23:00,65.0,65.0,-100.00,North,-999,-999.0,-999.0,99,-99.99,,,-99.99,,2014-08-22 14:23:00,
2014-08-22 09:42:00,65.0,65.0,-100.00,East,85,1.0,5.0,99,-99.99,,,-99.99,,2014-08-22 14:42:00,
2014-08-22 09:53:00,65.0,65.0,-100.00,East,85,1.0,5.0,99,-99.99,,,-99.99,,2014-08-22 14:53:00,
2014-08-22 10:55:00,66.0,66.0,-100.00,East,100,4.0,6.0,99,-99.99,,,-99.99,,2014-08-22 15:55:00,
2014-08-22 11:04:00,66.0,66.0,-100.00,East,100,4.0,6.0,99,-99.99,,,-99.99,,2014-08-22 16:04:00,
2014-08-22 11:44:00,68.0,68.0,-100.00,East,85,5.0,7.0,99,-99.99,,,-99.99,,2014-08-22 16:44:00,
2014-08-22 11:54:00,68.0,68.0,-100.00,East,85,5.0,7.0,99,-99.99,,,-99.99,,2014-08-22 16:54:00,
2014-08-22 12:03:00,68.0,68.0,-100.00,East,85,5.0,7.0,99,-99.99,,,-99.99,,2014-08-22 17:03:00,
2014-08-22 13:42:00,73.0,72.0,-100.00,SE,125,4.0,9.0,99,-99.99,,,-99.99,,2014-08-22 18:42:00,
2014-08-22 13:53:00,73.0,72.0,-100.00,SE,125,4.0,9.0,99,-99.99,,,-99.99,,2014-08-22 18:53:00,
2014-08-22 14:02:00,73.0,72.0,-100.00,SE,125,4.0,9.0,99,-99.99,,,-99.99,,2014-08-22 19:02:00,
2014-08-22 14:23:00,73.0,72.0,-100.00,SSE,160,4.0,8.0,99,-99.99,,,-99.99,,2014-08-22 19:23:00,
2014-08-22 14:42:00,73.0,72.0,-100.00,SSE,160,4.0,8.0,99,-99.99,,,-99.99,,2014-08-22 19:42:00,
2014-08-22 15:02:00,73.0,72.0,-100.00,SSE,160,4.0,8.0,99,-99.99,,,-99.99,,2014-08-22 20:02:00,
2014-08-22 15:23:00,72.0,71.0,-100.00,SSE,155,2.0,7.0,99,-99.99,,,-99.99,,2014-08-22 20:23:00,
2014-08-22 15:33:00,72.0,71.0,-100.00,SSE,155,2.0,7.0,99,-99.99,,,-99.99,,2014-08-22 20:33:00,
2014-08-22 15:43:00,72.0,71.0,-100.00,SSE,155,2.0,7.0,99,-99.99,,,-99.99,,2014-08-22 20:43:00,
2014-08-22 17:04:00,71.0,71.0,-100.00,SSE,150,3.0,6.0,99,-99.99,,,-99.99,,2014-08-22 22:04:00,
2014-08-22 17:22:00,72.0,71.0,-100.00,SE,130,1.0,5.0,99,-99.99,,,-99.99,,2014-08-22 22:22:00,
2014-08-22 17:23:00,72.0,72.0,-100.00,SE,135,1.0,4.0,100,-99.99,,,-99.99,,2014-08-22 22:23:00,
2014-08-22 17:33:00,72.0,72.0,-100.00,SE,135,1.0,4.0,100,-99.99,,,-99.99,,2014-08-22 22:33:00,
2014-08-22 17:43:00,72.0,72.0,-100.00,SE,135,1.0,4.0,100,-99.99,,,-99.99,,2014-08-22 22:43:00,
2014-08-22 19:02:00,72.0,72.0,-100.00,South,190,1.0,2.0,99,-99.99,,,-99.99,,2014-08-23 00:02:00,
2014-08-22 19:23:00,72.0,72.0,-100.00,South,170,1.0,3.0,100,-99.99,,,-99.99,,2014-08-23 00:23:00,
2014-08-22 19:32:00,72.0,72.0,-100.00,South,170,1.0,3.0,100,-99.99,,,-99.99,,2014-08-23 00:32:00,
2014-08-22 19:53:00,72.0,72.0,-100.00,South,170,1.0,3.0,100,-99.99,,,-99.99,,2014-08-23 00:53:00,
2014-08-22 20:02:00,72.0,72.0,-100.00,South,170,1.0,3.0,100,-99.99,,,-99.99,,2014-08-23 01:02:00,
2014-08-22 20:22:00,71.0,70.0,-100.00,SE,125,2.0,4.0,99,-99.99,,,-99.99,,2014-08-23 01:22:00,
2014-08-22 21:22:00,70.0,70.0,-100.00,SSE,165,0.0,2.0,99,-99.99,,,-99.99,,2014-08-23 02:22:00,